Date,TemperatureHighF,TemperatureAvgF,TemperatureLowF,DewpointHighF,DewpointAvgF,DewpointLowF,HumidityHigh,HumidityAvg,HumidityLow,PressureMaxIn,PressureMinIn,WindSpeedMaxMPH,WindSpeedAvgMPH,GustSpeedMaxMPH,PrecipitationSumIn
2013-2-1,33.6,26.9,19.4,14.1,7.9,2.6,58,45,31,29.78,29.32,11,3,17,0.00
2013-2-2,34.3,21.9,12.0,12.6,4.7,0.3,63,48,32,29.91,29.73,6,1,12,0.00
2013-2-3,34.7,23.8,14.9,15.9,11.7,9.9,82,61,39,29.73,29.45,4,0,6,0.00
2013-2-4,30.2,23.7,14.4,13.1,7.3,2.1,76,50,35,29.62,29.44,14,2,22,0.00
2013-2-5,35.6,25.2,13.5,13.8,9.5,4.4,74,52,35,29.71,29.60,4,1,8,0.00
2013-2-6,44.2,30.5,19.8,24.6,15.9,0.8,91,58,33,30.00,29.60,10,2,17,0.00
2013-2-7,30.6,22.8,12.0,4.7,2.1,-2.5,68,42,27,30.22,30.00,2,0,4,0.00
2013-2-8,32.2,23.2,19.8,26.7,17.4,1.3,93,80,36,30.13,29.66,8,2,11,0.00
2013-2-9,19.9,15.5,14.4,18.2,11.9,-2.8,93,86,42,29.84,29.47,13,5,19,0.00
2013-2-10,42.1,27.0,1.8,10.8,3.1,-4.5,76,39,18,30.16,29.97,5,1,8,0.00
2013-2-11,32.5,26.7,13.6,31.3,24.4,7.9,96,91,77,30.02,29.39,2,0,4,0.00
2013-2-12,41.4,37.7,34.2,33.9,27.7,25.2,99,67,61,29.60,29.35,10,2,18,0.17
2013-2-13,45.7,37.3,29.7,24.1,21.7,19.8,76,54,39,29.58,29.45,7,1,11,0.00
2013-2-14,51.6,40.2,20.1,23.2,20.7,16.3,86,48,28,29.66,29.43,5,1,9,0.00
2013-2-15,56.1,41.6,24.6,31.8,27.5,20.8,90,60,33,29.67,29.58,8,2,14,0.00
2013-2-16,39.6,32.9,25.5,31.4,20.6,2.8,94,63,37,29.68,29.50,8,2,11,0.01
2013-2-17,32.4,20.7,17.1,4.5,2.3,-3.5,54,44,36,29.48,29.24,14,4,21,0.00
2013-2-18,36.0,25.2,10.6,4.2,-3.6,-13.9,59,30,11,29.85,29.50,13,2,19,0.00
2013-2-19,40.8,27.8,14.4,36.3,17.7,4.3,91,67,42,29.86,29.42,5,1,11,0.00
2013-2-20,52.9,29.6,25.0,34.3,15.3,4.1,97,55,42,29.46,29.28,13,2,21,0.01
2013-2-21,33.6,25.9,21.0,19.7,12.4,7.6,70,57,38,29.97,29.49,10,3,14,0.00
2013-2-22,47.5,36.1,19.9,23.3,19.4,15.3,83,52,32,30.10,29.98,4,1,8,0.00
2013-2-23,37.4,33.1,31.3,32.5,28.6,20.0,97,84,68,29.99,29.72,4,0,8,0.04
2013-2-24,38.7,34.5,32.4,35.8,33.1,31.4,99,95,87,29.62,29.46,2,0,4,0.15
2013-2-25,43.0,35.8,26.8,33.8,30.2,25.3,95,80,69,29.92,29.62,2,0,4,0.11
2013-2-26,42.6,35.1,29.8,34.2,29.7,26.3,98,82,65,30.03,29.85,3,0,4,0.00
2013-2-27,36.1,34.7,32.2,35.6,33.6,27.3,98,96,74,29.84,29.39,6,1,9,0.64
2013-2-28,46.6,37.7,30.9,38.4,34.8,30.7,99,89,70,29.34,29.26,3,0,5,0.18